Kezdőlap
METAR-TAF:

METAR-TAF

Repülőterek :

Red Oak Municipal Airport

Red Oak, Iowa, Amerikai Egyesült Államok

földrajzi szélesség: 41-01N, földrajzi hosszúság: 095-16W, magasság: 318 m

Jelenlegi meteorológiai megfigyelések

A jelentés 34 perccel ezelõtt készült, 20:35 UTC
Északi szél 5 kt széllökések: 11 kt
Hőmérséklet 22°C
Páratartalom 33%
Légköri nyomás 1024 hPa
Látótávolság: 16.1 km
Derült ég

METAR: KRDK 222035Z AUTO 36005G11KT 10SM CLR 22/05 A3024 RMK AO2

Idő: 16:09 (21:09 UTC)


TAF: hiányzik

Meteorológiai megfigyelések és előrejelzések több, mint 4000 repülőtéren (METAR és TAF jelentéseket).

A térképen piros és sárga pontok jelzik az elérhető meteorológiai állomásokat.

Mozgassa az egeret a pont fölött, hogy megjelenjen az állomás neve.

Azután kattintson az időjárási megfigyelések és előrejelzések megtekintéséhez.

A térkép megváltoztatása: kattintson a fekete keresztel jelölt zöld gombra ráközelítéshez, a vonallal jelölt zöld gombra távolításhoz, vagy a zöld nyilakra a szomszédos térképek eléréséhez.


METAR-TAF: